SCP
0 0 1 2 3 3 3 2 1 1 1 1 1 0 0 0 0 0 0 0 0 0
1 1 2 3 3 2 2 2 1 1 1 1 0 0 0 0 0 0 0 0 0 0
1 2 3 3 2 1 1 1 1 1 1 0 0 0 0 0 0 0 0 0 0 0
2 3 3 2 2 1 1 1 1 1 0 0 0 0 0 0 0 0 0 0 0 0
2 3 3 2 1 1 1 1 1 0 0 0 0 0 0 0 0 0 0 0 0 0
3 3 2 2 1 1 1 1 0 0 0 0 0 0 0 0 0 0 0 0 0 0
2 1 1 1 1 1 1 0 0 0 0 0 0 0 0 0 0 0 0 0 0 0
1 1 1 0 0 0 0 0 0 0 0 0 0 0 0 0 0 0 0 0 0 0
1 0 0 0 0 0 0 0 0 0 0 0 0 0 0 0 0 0 0 0 0 0
0 0 0 0 0 0 0 0 0 0 0 0 0 0 0 0 0 0 0 0 0 0
0 0 0 0 0 0 0 0 0 0 0 0 0 0 0 0 0 0 0 0 0 0
0 0 0 0 0 0 0 0 0 0 0 0 0 0 0 0 0 0 0 0 0 0
0 0 0 0 0 0 0 0 0 0 0 0 0 0 0 0 0 0 0 0 0 0
0 0 0 0 0 0 0 0 0 0 0 0 0 0 0 0 0 0 0 0 0 0
Wind_Speed_500mb
72 62 57 55 48 49 50 56 48 39 31 33 39 38 38 31 30 30 31 33 34 32
72 68 63 62 53 47 51 52 48 37 33 43 41 36 38 32 31 31 30 32 31 29
75 71 69 64 56 50 54 55 43 37 42 47 40 35 33 28 29 28 28 29 27 26
68 66 58 62 57 56 50 54 41 44 50 46 40 35 32 27 25 25 25 25 23 21
58 52 57 57 55 58 55 51 45 48 48 47 38 32 29 28 27 26 19 19 16 19
51 54 55 56 56 56 58 54 53 48 48 41 33 26 24 19 27 25 17 9 13 17
50 49 55 58 58 56 57 58 52 47 41 38 27 25 21 22 28 24 22 17 16 18
50 52 58 60 56 56 57 53 48 46 41 33 32 27 26 29 24 22 25 22 20 16
62 65 63 59 57 55 54 53 47 41 38 35 30 33 31 28 24 25 21 20 17 15
65 63 57 56 54 55 53 51 40 39 39 33 32 35 31 30 28 25 22 19 15 13
59 56 57 57 56 52 48 43 40 40 35 31 32 32 29 29 26 23 21 19 18 11
60 62 56 58 55 51 48 45 39 35 38 37 33 29 29 30 27 24 24 22 19 15
57 59 63 59 56 51 45 40 38 39 35 30 30 29 25 24 26 29 28 27 19 20
58 55 52 50 50 49 45 42 38 37 33 28 27 28 26 24 24 25 23 25 23 23
Wind_Direction_500mb
247 247 248 243 245 244 241 240 239 236 228 203 209 214 214 219 220 235 234 245 244 244
243 248 244 243 241 241 236 238 228 232 210 209 213 214 212 216 227 234 241 240 242 240
243 244 247 235 236 237 229 227 223 215 204 206 206 211 213 219 230 236 237 239 232 238
243 243 234 228 231 230 220 214 207 201 200 202 203 207 219 228 234 231 223 225 229 230
235 229 220 220 228 220 212 202 199 193 197 200 206 216 228 228 227 209 209 204 227 234
214 213 220 223 212 202 198 196 187 189 193 195 203 216 212 221 209 203 194 216 249 239
209 212 204 195 193 199 203 186 181 185 187 187 200 206 214 220 197 219 213 231 247 253
194 186 184 191 195 183 174 177 174 173 178 192 208 210 206 195 203 211 211 227 254 244
183 180 181 183 176 168 165 168 171 178 185 195 201 191 202 205 209 213 230 247 239 241
172 167 168 172 168 167 174 172 177 181 192 197 199 191 202 201 218 231 240 234 224 244
162 166 163 162 163 165 166 172 182 185 190 195 190 194 202 207 217 234 222 206 201 193
168 165 166 161 164 167 170 175 186 193 186 186 197 206 205 214 217 212 195 192 198 191
168 166 164 168 174 172 176 179 186 181 185 195 201 205 201 202 197 199 194 184 201 198
158 159 165 172 174 174 180 183 183 184 189 198 199 202 202 199 195 198 191 194 206 209
Wind_Speed_850mb
72 62 57 55 48 49 50 56 48 39 31 33 39 38 38 31 30 30 31 33 34 32
72 68 63 62 53 47 51 52 48 37 33 43 41 36 38 32 31 31 30 32 31 29
75 71 69 64 56 50 54 55 43 37 42 47 40 35 33 28 29 28 28 29 27 26
68 66 58 62 57 56 50 54 41 44 50 46 40 35 32 27 25 25 25 25 23 21
58 52 57 57 55 58 55 51 45 48 48 47 38 32 29 28 27 26 19 19 16 19
51 54 55 56 56 56 58 54 53 48 48 41 33 26 24 19 27 25 17 9 13 17
50 49 55 58 58 56 57 58 52 47 41 38 27 25 21 22 28 24 22 17 16 18
50 52 58 60 56 56 57 53 48 46 41 33 32 27 26 29 24 22 25 22 20 16
62 65 63 59 57 55 54 53 47 41 38 35 30 33 31 28 24 25 21 20 17 15
65 63 57 56 54 55 53 51 40 39 39 33 32 35 31 30 28 25 22 19 15 13
59 56 57 57 56 52 48 43 40 40 35 31 32 32 29 29 26 23 21 19 18 11
60 62 56 58 55 51 48 45 39 35 38 37 33 29 29 30 27 24 24 22 19 15
57 59 63 59 56 51 45 40 38 39 35 30 30 29 25 24 26 29 28 27 19 20
58 55 52 50 50 49 45 42 38 37 33 28 27 28 26 24 24 25 23 25 23 23
Wind_Direction_850mb
247 247 248 243 245 244 241 240 239 236 228 203 209 214 214 219 220 235 234 245 244 244
243 248 244 243 241 241 236 238 228 232 210 209 213 214 212 216 227 234 241 240 242 240
243 244 247 235 236 237 229 227 223 215 204 206 206 211 213 219 230 236 237 239 232 238
243 243 234 228 231 230 220 214 207 201 200 202 203 207 219 228 234 231 223 225 229 230
235 229 220 220 228 220 212 202 199 193 197 200 206 216 228 228 227 209 209 204 227 234
214 213 220 223 212 202 198 196 187 189 193 195 203 216 212 221 209 203 194 216 249 239
209 212 204 195 193 199 203 186 181 185 187 187 200 206 214 220 197 219 213 231 247 253
194 186 184 191 195 183 174 177 174 173 178 192 208 210 206 195 203 211 211 227 254 244
183 180 181 183 176 168 165 168 171 178 185 195 201 191 202 205 209 213 230 247 239 241
172 167 168 172 168 167 174 172 177 181 192 197 199 191 202 201 218 231 240 234 224 244
162 166 163 162 163 165 166 172 182 185 190 195 190 194 202 207 217 234 222 206 201 193
168 165 166 161 164 167 170 175 186 193 186 186 197 206 205 214 217 212 195 192 198 191
168 166 164 168 174 172 176 179 186 181 185 195 201 205 201 202 197 199 194 184 201 198
158 159 165 172 174 174 180 183 183 184 189 198 199 202 202 199 195 198 191 194 206 209